Springfield, IL

4:35 PM CDT on October 23, 2017 (GMT -0500)
Capital

Weather History for KSPI - May, 2013

Change the Weather History Date:

Friday, May 24, 2013

  Actual Average Record
Temperature  
Mean Temperature 55 °F 66 °F  
Max Temperature 70 °F 77 °F 94 °F (1939)
Min Temperature 40 °F 55 °F 37 °F (1925)
Degree Days  
Heating Degree Days 11 3  
Month to date heating degree days 112  
Since 1 July heating degree days 5457  
Cooling Degree Days 0 4  
Month to date cooling degree days 79 54  
Year to date cooling degree days 93 74  
Growing Degree Days 4 (Base 50)    
Moisture  
Dew Point 41 °F    
Average Humidity 63    
Maximum Humidity 93    
Minimum Humidity 33    
Precipitation  
Precipitation 0.00 in 0.14 in 2.07 in (1994)
Month to date precipitation 5.10 3.24  
Year to date precipitation 19.22 13.01  
Snow  
Snow 0.00 in 0.00 in 0.00 in ()
Month to date snowfall 0.0 0.0  
Since 1 July snowfall 33.1 20.9  
Snow Depth 0.00 in    
Sea Level Pressure  
Sea Level Pressure 30.35 in    
Wind  
Wind Speed 6 mph (ENE)    
Max Wind Speed 14 mph    
Max Gust Speed 24 mph    
Visibility 10 miles    
Events      
T = Trace of Precipitation, MM = Missing Value Source: NWS Daily Summary

Daily Weather History Graph

Daily Weather History Graph

Search for Another Location

Airport or City:

Trip Planner

Search our weather history database for the weather conditions in past years. The results will help you decide how hot, cold, wet, or windy it might be!

Date:

Astronomy

May. 24, 2013 Rise Set
Actual Time 5:36 AM CDT 8:15 PM CDT
Civil Twilight 5:05 AM CDT 8:46 PM CDT
Nautical Twilight 4:26 AM CDT 9:25 PM CDT
Astronomical Twilight 3:41 AM CDT 10:10 PM CDT
Moon 7:57 PM CDT (5/24) 5:08 AM CDT (5/24)
Length of Visible Light 15h 41m
Length of Day
14h 38m
Full, 100% of the Moon is Illuminated
May 24
Full
May 24
Full
May 31
Last Quarter
Jun 8
New
Jun 16
First Quarter

Hourly Weather History & Observations

Time (CDT) Temp. Windchill Dew Point Humidity Pressure Visibility Wind Dir Wind Speed Gust Speed Precip Events Conditions
12:52 AM 48.0 °F - 46.0 °F 93% 30.29 in 10.0 mi Calm Calm - N/A   Clear
1:52 AM 46.9 °F - 45.0 °F 93% 30.31 in 10.0 mi East 5.8 mph - N/A   Clear
2:52 AM 44.1 °F 40.1 °F 42.1 °F 93% 30.32 in 10.0 mi ENE 6.9 mph - N/A   Clear
3:52 AM 42.1 °F 37.7 °F 39.9 °F 92% 30.32 in 10.0 mi ENE 6.9 mph - N/A   Clear
4:52 AM 41.0 °F 36.4 °F 37.9 °F 89% 30.34 in 10.0 mi NE 6.9 mph - N/A   Clear
5:52 AM 39.9 °F 36.7 °F 36.0 °F 86% 30.37 in 10.0 mi NE 4.6 mph - N/A   Clear
6:52 AM 43.0 °F 38.2 °F 37.9 °F 82% 30.40 in 10.0 mi NNE 8.1 mph - N/A   Clear
7:52 AM 48.0 °F - 37.9 °F 68% 30.42 in 10.0 mi NE 9.2 mph - N/A   Clear
8:52 AM 51.1 °F - 37.9 °F 61% 30.43 in 10.0 mi NE 11.5 mph - N/A   Clear
9:52 AM 55.0 °F - 39.9 °F 57% 30.43 in 10.0 mi NE 9.2 mph - N/A   Clear
10:52 AM 57.9 °F - 42.1 °F 56% 30.42 in 10.0 mi NE 8.1 mph - N/A   Clear
11:52 AM 60.1 °F - 43.0 °F 53% 30.41 in 10.0 mi ENE 9.2 mph - N/A   Clear
12:52 PM 62.1 °F - 42.1 °F 48% 30.40 in 10.0 mi North 10.4 mph - N/A   Clear
1:52 PM 64.0 °F - 42.1 °F 45% 30.38 in 10.0 mi ENE 6.9 mph - N/A   Clear
2:52 PM 66.0 °F - 39.0 °F 37% 30.37 in 10.0 mi Variable 5.8 mph - N/A   Clear
3:52 PM 68.0 °F - 39.0 °F 35% 30.34 in 10.0 mi NNE 4.6 mph - N/A   Clear
4:52 PM 69.1 °F - 39.0 °F 33% 30.32 in 10.0 mi Calm Calm - N/A   Clear
5:52 PM 66.9 °F - 37.9 °F 34% 30.31 in 10.0 mi SE 9.2 mph - N/A   Clear
6:52 PM 66.0 °F - 37.9 °F 36% 30.29 in 10.0 mi SSE 5.8 mph - N/A   Clear
7:52 PM 62.1 °F - 42.1 °F 48% 30.28 in 10.0 mi SE 4.6 mph - N/A   Clear
8:52 PM 55.0 °F - 45.0 °F 69% 30.31 in 10.0 mi Calm Calm - N/A   Clear
9:52 PM 52.0 °F - 45.0 °F 77% 30.32 in 10.0 mi Calm Calm - N/A   Clear
10:52 PM 51.1 °F - 43.0 °F 74% 30.34 in 10.0 mi Calm Calm - N/A   Clear
11:52 PM 50.0 °F - 46.0 °F 86% 30.34 in 10.0 mi Calm Calm - N/A   Clear